Location: Andiroba
(19.8650°S, 43.9258°W)
Time: 23:58:35
(UTC+00:00)

Cosmos 2061 Rocket - Pass Details

Date: 15 June 2024
Orbit: 965 x 1012 km, 82.9° (Epoch: 24 July)

Event Time Altitude Azimuth Distance (km) Brightness Sun altitude
Exits shadow 08:05:23 25° 221° (SW) 1,916 5.1 -19.0°
Maximum altitude 08:08:26 39° 270° (W) 1,462 4.4 -18.3°
Drops below altitude 10° 08:14:17 10° 337° (NNW) 2,765 6.3 -17.0°
Sets 08:16:57 0° 345° (NNW) 3,702 7.1 -16.4°
